Time,TemperatureF,DewpointF,PressureIn,WindDirection,WindDirectionDegrees,WindSpeedMPH,WindSpeedGustMPH,Humidity,HourlyPrecipIn,Conditions,Clouds,dailyrainin,SoftwareType,DateUTC
2013-02-05 00:00:00,23.4,20.6,29.97,North,356,6.0,7.0,89,0.00,,,0.00,Wunderground v.1.15,2013-02-05 05:00:00,
2013-02-05 00:03:00,23.3,20.5,29.97,NNW,333,6.0,9.0,89,0.00,,,0.00,Wunderground v.1.15,2013-02-05 05:03:00,
2013-02-05 00:08:00,23.1,20.3,29.96,North,3,6.0,9.0,89,0.00,,,0.00,Wunderground v.1.15,2013-02-05 05:08:00,
2013-02-05 00:10:00,23.0,20.2,29.97,North,350,6.0,8.0,89,0.00,,,0.00,Wunderground v.1.15,2013-02-05 05:10:00,
2013-02-05 00:12:00,22.9,20.1,29.97,NNW,340,6.0,8.0,89,0.00,,,0.00,Wunderground v.1.15,2013-02-05 05:12:00,
2013-02-05 00:18:00,22.8,20.0,29.98,NNW,342,7.0,9.0,89,0.00,,,0.00,Wunderground v.1.15,2013-02-05 05:18:00,
2013-02-05 00:24:00,22.7,19.9,29.97,NNW,339,7.0,7.0,89,0.00,,,0.00,Wunderground v.1.15,2013-02-05 05:24:00,
2013-02-05 00:30:00,22.6,19.8,29.98,North,352,6.0,6.0,89,0.00,,,0.00,Wunderground v.1.15,2013-02-05 05:30:00,
2013-02-05 00:36:00,22.5,19.7,29.97,North,350,6.0,12.0,89,0.00,,,0.00,Wunderground v.1.15,2013-02-05 05:36:00,
2013-02-05 00:42:00,22.4,19.6,29.98,NNW,330,6.0,12.0,89,0.00,,,0.00,Wunderground v.1.15,2013-02-05 05:42:00,
2013-02-05 00:48:00,22.2,19.7,29.98,NNW,337,4.0,12.0,90,0.00,,,0.00,Wunderground v.1.15,2013-02-05 05:48:00,
2013-02-05 00:54:00,22.1,19.6,29.98,NNW,347,3.0,12.0,90,0.00,,,0.00,Wunderground v.1.15,2013-02-05 05:54:00,
2013-02-05 01:00:00,21.9,19.4,29.98,NNW,338,3.0,4.0,90,0.00,,,0.00,Wunderground v.1.15,2013-02-05 06:00:00,
2013-02-05 01:06:00,21.8,19.3,29.98,North,356,3.0,4.0,90,0.00,,,0.00,Wunderground v.1.15,2013-02-05 06:06:00,
2013-02-05 01:12:00,21.7,19.2,29.99,NNW,336,3.0,4.0,90,0.00,,,0.00,Wunderground v.1.15,2013-02-05 06:12:00,
2013-02-05 01:18:00,21.7,19.5,29.99,NNW,336,4.0,4.0,91,0.00,,,0.00,Wunderground v.1.15,2013-02-05 06:18:00,
2013-02-05 01:24:00,21.7,19.5,29.98,North,352,3.0,4.0,91,0.00,,,0.00,Wunderground v.1.15,2013-02-05 06:24:00,
2013-02-05 01:30:00,21.6,19.4,29.98,North,352,1.0,1.0,91,0.00,,,0.00,Wunderground v.1.15,2013-02-05 06:30:00,
2013-02-05 01:35:00,21.5,19.3,29.99,North,352,1.0,14.0,91,0.00,,,0.00,Wunderground v.1.15,2013-02-05 06:35:00,
2013-02-05 01:41:00,21.4,19.2,29.98,North,352,0.0,14.0,91,0.00,,,0.00,Wunderground v.1.15,2013-02-05 06:41:00,
2013-02-05 01:47:00,21.2,19.0,29.98,SW,222,1.0,14.0,91,0.00,,,0.00,Wunderground v.1.15,2013-02-05 06:47:00,
2013-02-05 01:53:00,21.0,18.8,29.99,SW,222,1.0,14.0,91,0.00,,,0.00,Wunderground v.1.15,2013-02-05 06:53:00,
2013-02-05 01:59:00,20.9,18.7,29.98,SSW,207,1.0,14.0,91,0.00,,,0.00,Wunderground v.1.15,2013-02-05 06:59:00,
2013-02-05 02:05:00,20.7,18.7,29.99,SSW,207,1.0,1.0,92,0.00,,,0.00,Wunderground v.1.15,2013-02-05 07:05:00,
2013-02-05 02:11:00,20.5,18.5,29.98,SSW,207,0.0,0.0,92,0.00,,,0.00,Wunderground v.1.15,2013-02-05 07:11:00,
2013-02-05 02:17:00,20.1,18.1,29.99,NW,319,0.0,2.0,92,0.00,,,0.00,Wunderground v.1.15,2013-02-05 07:17:00,
2013-02-05 02:23:00,19.7,17.8,29.99,NW,324,1.0,2.0,92,0.00,,,0.00,Wunderground v.1.15,2013-02-05 07:23:00,
2013-02-05 02:29:00,19.5,17.8,29.99,NW,324,1.0,2.0,93,0.00,,,0.00,Wunderground v.1.15,2013-02-05 07:29:00,
2013-02-05 02:35:00,19.4,17.7,29.99,NW,324,1.0,5.0,93,0.00,,,0.00,Wunderground v.1.15,2013-02-05 07:35:00,
2013-02-05 02:40:00,19.3,17.6,29.99,NW,324,0.0,5.0,93,0.00,,,0.00,Wunderground v.1.15,2013-02-05 07:40:00,
2013-02-05 02:46:00,19.1,17.4,29.99,NW,324,0.0,5.0,93,0.00,,,0.00,Wunderground v.1.15,2013-02-05 07:46:00,
2013-02-05 02:52:00,19.0,17.6,29.99,NW,324,0.0,5.0,94,0.00,,,0.00,Wunderground v.1.15,2013-02-05 07:52:00,
2013-02-05 02:58:00,18.9,17.5,29.98,NW,325,0.0,5.0,94,0.00,,,0.00,Wunderground v.1.15,2013-02-05 07:58:00,
2013-02-05 03:04:00,19.0,17.6,29.99,NW,324,0.0,0.0,94,0.00,,,0.00,Wunderground v.1.15,2013-02-05 08:04:00,
2013-02-05 03:10:00,18.7,17.0,29.99,NW,324,0.0,0.0,93,0.00,,,0.00,Wunderground v.1.15,2013-02-05 08:10:00,
2013-02-05 03:16:00,18.4,16.7,29.98,NW,325,0.0,0.0,93,0.00,,,0.00,Wunderground v.1.15,2013-02-05 08:16:00,
2013-02-05 03:22:00,18.3,16.6,29.99,NW,325,0.0,0.0,93,0.00,,,0.00,Wunderground v.1.15,2013-02-05 08:22:00,
2013-02-05 03:28:00,18.0,16.3,29.99,NW,324,0.0,0.0,93,0.00,,,0.00,Wunderground v.1.15,2013-02-05 08:28:00,
2013-02-05 03:33:00,17.9,16.5,29.99,NW,324,0.0,2.0,94,0.00,,,0.00,Wunderground v.1.15,2013-02-05 08:33:00,
2013-02-05 03:39:00,17.9,16.5,29.99,WSW,250,0.0,2.0,94,0.00,,,0.00,Wunderground v.1.15,2013-02-05 08:39:00,
2013-02-05 03:45:00,17.8,16.4,29.99,SW,226,0.0,2.0,94,0.00,,,0.00,Wunderground v.1.15,2013-02-05 08:45:00,
2013-02-05 03:51:00,17.8,16.4,29.99,SW,226,0.0,2.0,94,0.00,,,0.00,Wunderground v.1.15,2013-02-05 08:51:00,
2013-02-05 03:57:00,17.7,16.3,29.98,SW,226,0.0,2.0,94,0.00,,,0.00,Wunderground v.1.15,2013-02-05 08:57:00,
2013-02-05 04:03:00,17.9,16.5,29.98,SW,226,0.0,0.0,94,0.00,,,0.00,Wunderground v.1.15,2013-02-05 09:03:00,
2013-02-05 04:09:00,18.1,16.7,29.98,SW,227,0.0,0.0,94,0.00,,,0.00,Wunderground v.1.15,2013-02-05 09:09:00,
2013-02-05 04:14:00,18.2,16.8,29.98,SW,226,0.0,0.0,94,0.00,,,0.00,Wunderground v.1.15,2013-02-05 09:14:00,
2013-02-05 04:20:00,18.1,16.7,29.98,SW,228,0.0,0.0,94,0.00,,,0.00,Wunderground v.1.15,2013-02-05 09:20:00,
2013-02-05 04:26:00,18.2,16.8,29.97,SW,228,0.0,0.0,94,0.00,,,0.00,Wunderground v.1.15,2013-02-05 09:26:00,
2013-02-05 04:32:00,18.2,16.8,29.97,SW,229,0.0,0.0,94,0.00,,,0.00,Wunderground v.1.15,2013-02-05 09:32:00,
2013-02-05 04:38:00,18.3,16.9,29.98,SW,228,0.0,0.0,94,0.00,,,0.00,Wunderground v.1.15,2013-02-05 09:38:00,
2013-02-05 04:44:00,18.4,17.0,29.97,SW,229,0.0,0.0,94,0.00,,,0.00,Wunderground v.1.15,2013-02-05 09:44:00,
2013-02-05 04:50:00,18.5,17.1,29.98,SW,228,0.0,0.0,94,0.00,,,0.00,Wunderground v.1.15,2013-02-05 09:50:00,
2013-02-05 04:56:00,18.5,16.8,29.98,SW,228,0.0,0.0,93,0.00,,,0.00,Wunderground v.1.15,2013-02-05 09:56:00,
2013-02-05 05:02:00,18.6,17.2,29.98,SW,228,0.0,0.0,94,0.00,,,0.00,Wunderground v.1.15,2013-02-05 10:02:00,
2013-02-05 05:08:00,18.6,17.2,29.98,SW,228,0.0,0.0,94,0.00,,,0.00,Wunderground v.1.15,2013-02-05 10:08:00,
2013-02-05 05:13:00,18.6,16.9,29.98,SW,228,0.0,0.0,93,0.00,,,0.00,Wunderground v.1.15,2013-02-05 10:13:00,
2013-02-05 05:19:00,18.5,16.8,29.98,SW,228,0.0,0.0,93,0.00,,,0.00,Wunderground v.1.15,2013-02-05 10:19:00,
2013-02-05 05:25:00,18.5,16.8,29.98,SW,226,0.0,0.0,93,0.00,,,0.00,Wunderground v.1.15,2013-02-05 10:25:00,
2013-02-05 05:31:00,18.5,17.1,29.97,SE,143,0.0,0.0,94,0.00,,,0.00,Wunderground v.1.15,2013-02-05 10:31:00,
2013-02-05 05:37:00,18.4,16.7,29.97,ESE,117,0.0,1.0,93,0.00,,,0.00,Wunderground v.1.15,2013-02-05 10:37:00,
2013-02-05 05:43:00,18.2,16.5,29.97,ESE,117,0.0,0.0,93,0.00,,,0.00,Wunderground v.1.15,2013-02-05 10:43:00,
2013-02-05 05:49:00,17.9,16.2,29.97,ESE,117,0.0,0.0,93,0.00,,,0.00,Wunderground v.1.15,2013-02-05 10:49:00,
2013-02-05 05:55:00,17.7,16.0,29.98,SW,215,0.0,0.0,93,0.00,,,0.00,Wunderground v.1.15,2013-02-05 10:55:00,
2013-02-05 06:00:00,17.7,16.0,29.98,SW,215,0.0,0.0,93,0.00,,,0.00,Wunderground v.1.15,2013-02-05 11:00:00,
2013-02-05 06:05:00,17.7,16.3,29.98,SW,215,0.0,0.0,94,0.00,,,0.00,Wunderground v.1.15,2013-02-05 11:05:00,
2013-02-05 06:11:00,17.6,16.2,29.98,SW,215,0.0,1.0,94,0.00,,,0.00,Wunderground v.1.15,2013-02-05 11:11:00,
2013-02-05 06:17:00,17.7,16.3,29.99,NW,315,1.0,2.0,94,0.00,,,0.00,Wunderground v.1.15,2013-02-05 11:17:00,
2013-02-05 06:22:00,17.7,16.3,29.99,NW,314,1.0,1.0,94,0.00,,,0.00,Wunderground v.1.15,2013-02-05 11:22:00,
2013-02-05 06:28:00,17.5,15.8,29.99,SW,224,1.0,1.0,93,0.00,,,0.00,Wunderground v.1.15,2013-02-05 11:28:00,
2013-02-05 06:34:00,17.5,16.1,29.98,SSW,209,1.0,1.0,94,0.00,,,0.00,Wunderground v.1.15,2013-02-05 11:34:00,
2013-02-05 06:40:00,17.3,15.6,29.99,SSW,208,0.0,0.0,93,0.00,,,0.00,Wunderground v.1.15,2013-02-05 11:40:00,
2013-02-05 06:46:00,17.0,15.3,29.98,SSW,208,0.0,0.0,93,0.00,,,0.00,Wunderground v.1.15,2013-02-05 11:46:00,
2013-02-05 06:52:00,16.6,14.9,29.98,SSE,149,0.0,1.0,93,0.00,,,0.00,Wunderground v.1.15,2013-02-05 11:52:00,
2013-02-05 06:58:00,16.2,14.5,29.99,SSE,166,1.0,1.0,93,0.00,,,0.00,Wunderground v.1.15,2013-02-05 11:58:00,
2013-02-05 07:04:00,16.2,14.5,29.98,SSE,166,0.0,1.0,93,0.00,,,0.00,Wunderground v.1.15,2013-02-05 12:04:00,
2013-02-05 07:10:00,16.0,14.3,29.98,SE,146,1.0,1.0,93,0.00,,,0.00,Wunderground v.1.15,2013-02-05 12:10:00,
2013-02-05 07:16:00,15.9,14.2,29.98,SE,146,1.0,1.0,93,0.00,,,0.00,Wunderground v.1.15,2013-02-05 12:16:00,
2013-02-05 07:22:00,15.9,14.2,29.98,SE,146,0.0,1.0,93,0.00,,,0.00,Wunderground v.1.15,2013-02-05 12:22:00,
2013-02-05 07:28:00,15.4,13.7,29.98,SE,146,0.0,1.0,93,0.00,,,0.00,Wunderground v.1.15,2013-02-05 12:28:00,
2013-02-05 07:34:00,15.5,13.8,29.98,SE,146,0.0,2.0,93,0.00,,,0.00,Wunderground v.1.15,2013-02-05 12:34:00,
2013-02-05 07:40:00,15.4,13.7,29.99,SSE,148,0.0,2.0,93,0.00,,,0.00,Wunderground v.1.15,2013-02-05 12:40:00,
2013-02-05 07:46:00,15.4,13.7,30.00,SW,233,0.0,2.0,93,0.00,,,0.00,Wunderground v.1.15,2013-02-05 12:46:00,
2013-02-05 07:52:00,15.3,13.9,29.99,SW,231,0.0,2.0,94,0.00,,,0.00,Wunderground v.1.15,2013-02-05 12:52:00,
2013-02-05 07:58:00,15.2,13.5,30.00,SSW,200,0.0,2.0,93,0.00,,,0.00,Wunderground v.1.15,2013-02-05 12:58:00,
2013-02-05 08:04:00,14.7,12.8,30.00,SE,143,0.0,0.0,92,0.00,,,0.00,Wunderground v.1.15,2013-02-05 13:04:00,
2013-02-05 08:10:00,14.3,12.4,29.99,SSE,153,1.0,1.0,92,0.00,,,0.00,Wunderground v.1.15,2013-02-05 13:10:00,
2013-02-05 08:15:00,14.3,12.6,29.99,ESE,115,1.0,2.0,93,0.00,,,0.00,Wunderground v.1.15,2013-02-05 13:15:00,
2013-02-05 08:21:00,13.8,11.9,29.99,SE,134,2.0,2.0,92,0.00,,,0.00,Wunderground v.1.15,2013-02-05 13:21:00,
2013-02-05 08:27:00,13.7,11.8,29.99,SE,134,1.0,2.0,92,0.00,,,0.00,Wunderground v.1.15,2013-02-05 13:27:00,
2013-02-05 08:33:00,14.3,12.4,30.00,SE,134,0.0,1.0,92,0.00,,,0.00,Wunderground v.1.15,2013-02-05 13:33:00,
2013-02-05 08:39:00,14.9,13.2,30.00,South,183,0.0,1.0,93,0.00,,,0.00,Wunderground v.1.15,2013-02-05 13:39:00,
2013-02-05 08:45:00,15.1,13.2,30.00,SSE,148,0.0,1.0,92,0.00,,,0.00,Wunderground v.1.15,2013-02-05 13:45:00,
2013-02-05 08:51:00,14.8,12.9,30.00,SSE,156,0.0,1.0,92,0.00,,,0.00,Wunderground v.1.15,2013-02-05 13:51:00,
2013-02-05 08:56:00,14.9,13.0,30.00,ESE,104,0.0,1.0,92,0.00,,,0.00,Wunderground v.1.15,2013-02-05 13:56:00,
2013-02-05 09:02:00,15.6,13.9,30.00,ESE,104,0.0,0.0,93,0.00,,,0.00,Wunderground v.1.15,2013-02-05 14:02:00,
2013-02-05 09:08:00,16.4,14.7,30.00,SE,131,0.0,1.0,93,0.00,,,0.00,Wunderground v.1.15,2013-02-05 14:08:00,
2013-02-05 09:14:00,17.8,16.4,30.00,SE,135,0.0,2.0,94,0.00,,,0.00,Wunderground v.1.15,2013-02-05 14:14:00,
2013-02-05 09:20:00,18.0,16.3,30.00,SSE,150,1.0,2.0,93,0.00,,,0.00,Wunderground v.1.15,2013-02-05 14:20:00,
2013-02-05 09:26:00,18.6,16.9,30.00,SE,130,1.0,2.0,93,0.00,,,0.00,Wunderground v.1.15,2013-02-05 14:26:00,
2013-02-05 09:32:00,19.2,17.5,30.00,SE,133,1.0,2.0,93,0.00,,,0.00,Wunderground v.1.15,2013-02-05 14:32:00,
2013-02-05 09:38:00,19.7,18.0,30.00,SE,145,2.0,3.0,93,0.00,,,0.00,Wunderground v.1.15,2013-02-05 14:38:00,
2013-02-05 09:44:00,20.4,18.7,30.00,SE,142,2.0,2.0,93,0.00,,,0.00,Wunderground v.1.15,2013-02-05 14:44:00,
2013-02-05 09:50:00,21.0,19.3,30.00,ESE,120,1.0,2.0,93,0.00,,,0.00,Wunderground v.1.15,2013-02-05 14:50:00,
2013-02-05 09:56:00,21.3,19.6,30.00,South,184,2.0,3.0,93,0.00,,,0.00,Wunderground v.1.15,2013-02-05 14:56:00,
2013-02-05 10:01:00,21.6,19.9,30.00,South,191,2.0,3.0,93,0.00,,,0.00,Wunderground v.1.15,2013-02-05 15:01:00,
2013-02-05 10:07:00,21.7,20.0,30.00,SSW,205,2.0,4.0,93,0.00,,,0.00,Wunderground v.1.15,2013-02-05 15:07:00,
2013-02-05 10:13:00,22.0,20.3,30.00,SSE,167,4.0,5.0,93,0.00,,,0.00,Wunderground v.1.15,2013-02-05 15:13:00,
2013-02-05 10:19:00,22.1,20.4,30.01,SSW,193,5.0,7.0,93,0.00,,,0.00,Wunderground v.1.15,2013-02-05 15:19:00,
2013-02-05 10:25:00,22.4,20.7,30.01,SW,215,5.0,6.0,93,0.00,,,0.00,Wunderground v.1.15,2013-02-05 15:25:00,
2013-02-05 10:31:00,22.5,20.8,30.01,SSE,157,5.0,5.0,93,0.00,,,0.00,Wunderground v.1.15,2013-02-05 15:31:00,
2013-02-05 10:37:00,22.7,21.0,30.00,SSE,160,5.0,8.0,93,0.00,,,0.00,Wunderground v.1.15,2013-02-05 15:37:00,
2013-02-05 10:43:00,23.0,21.3,29.99,South,169,5.0,6.0,93,0.00,,,0.00,Wunderground v.1.15,2013-02-05 15:43:00,
2013-02-05 10:48:00,23.3,21.3,29.99,ESE,120,6.0,7.0,92,0.00,,,0.00,Wunderground v.1.15,2013-02-05 15:48:00,
2013-02-05 10:54:00,23.6,21.6,29.98,South,188,6.0,6.0,92,0.00,,,0.00,Wunderground v.1.15,2013-02-05 15:54:00,
2013-02-05 11:00:00,23.9,21.7,29.98,SE,142,5.0,9.0,91,0.00,,,0.00,Wunderground v.1.15,2013-02-05 16:00:00,
2013-02-05 11:06:00,24.2,21.7,29.98,SSW,207,7.0,9.0,90,0.00,,,0.00,Wunderground v.1.15,2013-02-05 16:06:00,
2013-02-05 11:12:00,24.8,22.0,29.98,South,172,7.0,7.0,89,0.00,,,0.00,Wunderground v.1.15,2013-02-05 16:12:00,
2013-02-05 11:18:00,25.3,22.0,29.98,SE,136,5.0,7.0,87,0.00,,,0.00,Wunderground v.1.15,2013-02-05 16:18:00,
2013-02-05 11:24:00,25.6,22.3,29.98,SE,134,5.0,7.0,87,0.00,,,0.00,Wunderground v.1.15,2013-02-05 16:24:00,
2013-02-05 11:30:00,25.9,22.3,29.97,SE,143,5.0,5.0,86,0.00,,,0.00,Wunderground v.1.15,2013-02-05 16:30:00,
2013-02-05 11:36:00,26.0,22.1,29.97,SSW,194,7.0,8.0,85,0.00,,,0.00,Wunderground v.1.15,2013-02-05 16:36:00,
2013-02-05 11:41:00,26.3,22.4,29.96,South,181,8.0,9.0,85,0.00,,,0.00,Wunderground v.1.15,2013-02-05 16:41:00,
2013-02-05 11:47:00,26.4,22.2,29.96,South,171,8.0,9.0,84,0.00,,,0.00,Wunderground v.1.15,2013-02-05 16:47:00,
2013-02-05 11:53:00,26.7,22.5,29.96,SSE,160,7.0,8.0,84,0.00,,,0.00,Wunderground v.1.15,2013-02-05 16:53:00,
2013-02-05 11:58:00,26.9,22.7,29.96,SSW,210,7.0,9.0,84,0.00,,,0.00,Wunderground v.1.15,2013-02-05 16:58:00,
2013-02-05 12:04:00,27.1,22.6,29.95,SSE,149,7.0,8.0,83,0.00,,,0.00,Wunderground v.1.15,2013-02-05 17:04:00,
2013-02-05 12:09:00,27.4,22.9,29.95,SSW,195,7.0,9.0,83,0.00,,,0.00,Wunderground v.1.15,2013-02-05 17:09:00,
2013-02-05 12:15:00,27.6,22.8,29.95,SSE,165,6.0,12.0,82,0.00,,,0.00,Wunderground v.1.15,2013-02-05 17:15:00,
2013-02-05 12:21:00,27.7,22.6,29.94,SSW,194,8.0,10.0,81,0.00,,,0.00,Wunderground v.1.15,2013-02-05 17:21:00,
2013-02-05 12:26:00,27.7,22.6,29.94,SW,215,9.0,11.0,81,0.00,,,0.00,Wunderground v.1.15,2013-02-05 17:26:00,
2013-02-05 12:32:00,27.8,22.7,29.94,South,174,9.0,14.0,81,0.00,,,0.00,Wunderground v.1.15,2013-02-05 17:32:00,
2013-02-05 12:37:00,27.9,22.8,29.94,SSW,194,10.0,14.0,81,0.00,,,0.00,Wunderground v.1.15,2013-02-05 17:37:00,
2013-02-05 12:43:00,28.0,22.6,29.93,South,169,11.0,13.0,80,0.00,,,0.00,Wunderground v.1.15,2013-02-05 17:43:00,
2013-02-05 12:49:00,28.3,22.6,29.93,SSE,153,9.0,13.0,79,0.00,,,0.00,Wunderground v.1.15,2013-02-05 17:49:00,
2013-02-05 12:55:00,28.3,22.6,29.93,SSE,166,10.0,13.0,79,0.00,,,0.00,Wunderground v.1.15,2013-02-05 17:55:00,
2013-02-05 13:00:00,28.4,22.7,29.93,SSW,198,10.0,10.0,79,0.00,,,0.00,Wunderground v.1.15,2013-02-05 18:00:00,
2013-02-05 13:06:00,28.6,22.6,29.93,South,188,10.0,11.0,78,0.00,,,0.00,Wunderground v.1.15,2013-02-05 18:06:00,
2013-02-05 13:12:00,28.8,22.8,29.93,SSE,160,10.0,10.0,78,0.00,,,0.00,Wunderground v.1.15,2013-02-05 18:12:00,
2013-02-05 13:18:00,29.0,22.7,29.92,South,172,9.0,10.0,77,0.00,,,0.00,Wunderground v.1.15,2013-02-05 18:18:00,
2013-02-05 13:24:00,29.3,23.0,29.92,SSE,155,8.0,11.0,77,0.00,,,0.00,Wunderground v.1.15,2013-02-05 18:24:00,
2013-02-05 13:29:00,29.4,23.4,29.92,SSW,210,8.0,11.0,78,0.00,,,0.00,Wunderground v.1.15,2013-02-05 18:29:00,
2013-02-05 13:35:00,29.8,23.5,29.92,SSW,207,7.0,15.0,77,0.00,,,0.00,Wunderground v.1.15,2013-02-05 18:35:00,
2013-02-05 13:41:00,29.6,23.3,29.91,South,188,8.0,15.0,77,0.00,,,0.00,Wunderground v.1.15,2013-02-05 18:41:00,
2013-02-05 13:47:00,29.6,23.3,29.91,SSW,201,9.0,15.0,77,0.00,,,0.00,Wunderground v.1.15,2013-02-05 18:47:00,
2013-02-05 13:53:00,29.7,23.4,29.91,SSW,197,9.0,15.0,77,0.00,,,0.00,Wunderground v.1.15,2013-02-05 18:53:00,
2013-02-05 13:59:00,29.9,23.6,29.91,South,172,8.0,15.0,77,0.00,,,0.00,Wunderground v.1.15,2013-02-05 18:59:00,
2013-02-05 14:05:00,29.9,23.6,29.90,South,191,8.0,11.0,77,0.00,,,0.00,Wunderground v.1.15,2013-02-05 19:05:00,
2013-02-05 14:11:00,30.0,23.4,29.89,South,173,9.0,9.0,76,0.00,,,0.00,Wunderground v.1.15,2013-02-05 19:11:00,
2013-02-05 14:17:00,29.8,23.2,29.89,South,180,10.0,10.0,76,0.00,,,0.00,Wunderground v.1.15,2013-02-05 19:17:00,
2013-02-05 14:23:00,30.0,23.7,29.89,SSW,201,9.0,11.0,77,0.00,,,0.00,Wunderground v.1.15,2013-02-05 19:23:00,
2013-02-05 14:29:00,30.1,23.8,29.89,SSW,203,8.0,11.0,77,0.00,,,0.00,Wunderground v.1.15,2013-02-05 19:29:00,
2013-02-05 14:35:00,30.3,24.3,29.89,SSW,207,7.0,16.0,78,0.00,,,0.00,Wunderground v.1.15,2013-02-05 19:35:00,
2013-02-05 14:41:00,30.5,24.1,29.88,SSE,159,8.0,16.0,77,0.00,,,0.00,Wunderground v.1.15,2013-02-05 19:41:00,
2013-02-05 14:47:00,30.7,24.3,29.88,SSW,197,8.0,16.0,77,0.00,,,0.00,Wunderground v.1.15,2013-02-05 19:47:00,
2013-02-05 14:53:00,30.8,24.7,29.88,SSW,200,7.0,16.0,78,0.00,,,0.00,Wunderground v.1.15,2013-02-05 19:53:00,
2013-02-05 14:59:00,30.9,24.5,29.88,SW,226,8.0,16.0,77,0.00,,,0.00,Wunderground v.1.15,2013-02-05 19:59:00,
2013-02-05 15:04:00,31.0,24.6,29.88,South,173,8.0,9.0,77,0.00,,,0.00,Wunderground v.1.15,2013-02-05 20:04:00,
2013-02-05 15:09:00,31.0,24.9,29.88,SW,232,8.0,9.0,78,0.00,,,0.00,Wunderground v.1.15,2013-02-05 20:09:00,
2013-02-05 15:15:00,31.1,25.0,29.88,SSW,194,8.0,10.0,78,0.00,,,0.00,Wunderground v.1.15,2013-02-05 20:15:00,
2013-02-05 15:20:00,31.3,25.5,29.88,SW,224,7.0,8.0,79,0.00,,,0.00,Wunderground v.1.15,2013-02-05 20:20:00,
2013-02-05 15:26:00,31.5,25.4,29.88,SSW,198,7.0,10.0,78,0.00,,,0.00,Wunderground v.1.15,2013-02-05 20:26:00,
2013-02-05 15:31:00,31.6,25.8,29.88,SSW,196,8.0,16.0,79,0.00,,,0.00,Wunderground v.1.15,2013-02-05 20:31:00,
2013-02-05 15:37:00,31.8,25.4,29.88,SW,219,8.0,16.0,77,0.00,,,0.00,Wunderground v.1.15,2013-02-05 20:37:00,
2013-02-05 15:43:00,32.0,25.3,29.89,SW,229,8.0,16.0,76,0.00,,,0.00,Wunderground v.1.15,2013-02-05 20:43:00,
2013-02-05 15:49:00,32.3,25.6,29.89,SSW,207,9.0,16.0,76,0.00,,,0.00,Wunderground v.1.15,2013-02-05 20:49:00,
2013-02-05 15:55:00,32.3,25.6,29.89,SSW,212,9.0,16.0,76,0.00,,,0.00,Wunderground v.1.15,2013-02-05 20:55:00,
2013-02-05 16:00:00,32.4,25.7,29.89,SW,225,9.0,9.0,76,0.00,,,0.00,Wunderground v.1.15,2013-02-05 21:00:00,
2013-02-05 16:06:00,32.6,26.2,29.89,SW,231,7.0,10.0,77,0.00,,,0.00,Wunderground v.1.15,2013-02-05 21:06:00,
2013-02-05 16:12:00,32.7,26.0,29.89,SW,219,7.0,15.0,76,0.00,,,0.00,Wunderground v.1.15,2013-02-05 21:12:00,
2013-02-05 16:18:00,32.6,26.2,29.89,WSW,238,10.0,15.0,77,0.00,,,0.00,Wunderground v.1.15,2013-02-05 21:18:00,
2013-02-05 16:24:00,32.5,26.1,29.89,SW,236,10.0,15.0,77,0.00,,,0.00,Wunderground v.1.15,2013-02-05 21:24:00,
2013-02-05 16:29:00,32.4,26.3,29.90,SSW,211,11.0,15.0,78,0.00,,,0.00,Wunderground v.1.15,2013-02-05 21:29:00,
2013-02-05 16:35:00,32.3,26.8,29.90,SW,224,9.0,13.0,80,0.00,,,0.00,Wunderground v.1.15,2013-02-05 21:35:00,
2013-02-05 16:41:00,32.3,27.1,29.91,East,81,8.0,9.0,81,0.00,,,0.00,Wunderground v.1.15,2013-02-05 21:41:00,
2013-02-05 16:46:00,32.2,26.7,29.91,NNW,344,7.0,13.0,80,0.00,,,0.00,Wunderground v.1.15,2013-02-05 21:46:00,
2013-02-05 16:52:00,32.1,26.9,29.92,WSW,248,7.0,13.0,81,0.00,,,0.00,Wunderground v.1.15,2013-02-05 21:52:00,
2013-02-05 16:58:00,32.0,26.8,29.92,WSW,256,6.0,13.0,81,0.00,,,0.00,Wunderground v.1.15,2013-02-05 21:58:00,
2013-02-05 17:03:00,32.0,27.1,29.92,SW,229,5.0,7.0,82,0.00,,,0.00,Wunderground v.1.15,2013-02-05 22:03:00,
2013-02-05 17:09:00,31.9,26.7,29.92,SW,215,5.0,10.0,81,0.00,,,0.00,Wunderground v.1.15,2013-02-05 22:09:00,
2013-02-05 17:15:00,31.8,27.2,29.92,SSW,201,6.0,9.0,83,0.00,,,0.00,Wunderground v.1.15,2013-02-05 22:15:00,
2013-02-05 17:20:00,31.4,27.1,29.92,SE,124,6.0,6.0,84,0.00,,,0.00,Wunderground v.1.15,2013-02-05 22:20:00,
2013-02-05 17:26:00,31.3,27.3,29.92,WSW,248,5.0,12.0,85,0.00,,,0.00,Wunderground v.1.15,2013-02-05 22:26:00,
2013-02-05 17:32:00,31.3,27.0,29.92,West,281,6.0,18.0,84,0.00,,,0.00,Wunderground v.1.15,2013-02-05 22:32:00,
2013-02-05 17:38:00,31.2,27.2,29.93,WSW,253,5.0,18.0,85,0.00,,,0.00,Wunderground v.1.15,2013-02-05 22:38:00,
2013-02-05 17:44:00,31.2,27.2,29.93,SW,226,6.0,18.0,85,0.00,,,0.00,Wunderground v.1.15,2013-02-05 22:44:00,
2013-02-05 17:50:00,31.2,27.2,29.93,SW,225,5.0,18.0,85,0.00,,,0.00,Wunderground v.1.15,2013-02-05 22:50:00,
2013-02-05 17:56:00,31.2,27.5,29.93,SW,229,6.0,18.0,86,0.00,,,0.00,Wunderground v.1.15,2013-02-05 22:56:00,
2013-02-05 18:02:00,31.1,27.4,29.93,SSW,203,5.0,6.0,86,0.00,,,0.00,Wunderground v.1.15,2013-02-05 23:02:00,
2013-02-05 18:08:00,31.1,27.7,29.94,SW,225,4.0,6.0,87,0.00,,,0.00,Wunderground v.1.15,2013-02-05 23:08:00,
2013-02-05 18:13:00,31.1,27.7,29.94,SW,231,5.0,5.0,87,0.00,,,0.00,Wunderground v.1.15,2013-02-05 23:13:00,
2013-02-05 18:19:00,31.2,27.8,29.94,NE,36,4.0,7.0,87,0.00,,,0.00,Wunderground v.1.15,2013-02-05 23:19:00,
2013-02-05 18:25:00,31.2,27.8,29.94,NW,314,4.0,7.0,87,0.00,,,0.00,Wunderground v.1.15,2013-02-05 23:25:00,
2013-02-05 18:31:00,31.2,27.8,29.94,SW,233,4.0,14.0,87,0.00,,,0.00,Wunderground v.1.15,2013-02-05 23:31:00,
2013-02-05 18:37:00,31.3,27.9,29.94,WSW,238,5.0,14.0,87,0.00,,,0.00,Wunderground v.1.15,2013-02-05 23:37:00,
2013-02-05 18:42:00,31.3,27.9,29.95,SSE,160,4.0,14.0,87,0.00,,,0.00,Wunderground v.1.15,2013-02-05 23:42:00,
2013-02-05 18:48:00,31.3,27.9,29.95,WSW,257,3.0,14.0,87,0.00,,,0.00,Wunderground v.1.15,2013-02-05 23:48:00,
2013-02-05 18:53:00,31.4,28.3,29.95,SW,229,3.0,14.0,88,0.00,,,0.00,Wunderground v.1.15,2013-02-05 23:53:00,
2013-02-05 18:59:00,31.5,28.4,29.95,South,176,3.0,14.0,88,0.00,,,0.00,Wunderground v.1.15,2013-02-05 23:59:00,
2013-02-05 19:05:00,31.6,28.5,29.95,SSW,207,4.0,6.0,88,0.00,,,0.00,Wunderground v.1.15,2013-02-06 00:05:00,
2013-02-05 19:10:00,31.8,28.9,29.96,NW,317,5.0,10.0,89,0.00,,,0.00,Wunderground v.1.15,2013-02-06 00:10:00,
2013-02-05 19:16:00,32.0,28.8,29.96,WSW,253,6.0,12.0,88,0.00,,,0.00,Wunderground v.1.15,2013-02-06 00:16:00,
2013-02-05 19:22:00,32.2,29.0,29.97,SSW,211,6.0,11.0,88,0.00,,,0.00,Wunderground v.1.15,2013-02-06 00:22:00,
2013-02-05 19:28:00,32.3,29.4,29.97,WSW,246,5.0,11.0,89,0.00,,,0.00,Wunderground v.1.15,2013-02-06 00:28:00,
2013-02-05 19:34:00,32.3,29.1,29.97,WSW,257,5.0,13.0,88,0.00,,,0.00,Wunderground v.1.15,2013-02-06 00:34:00,
2013-02-05 19:40:00,32.3,29.1,29.98,ESE,105,6.0,6.0,88,0.00,,,0.00,Wunderground v.1.15,2013-02-06 00:40:00,
2013-02-05 19:46:00,32.4,29.2,29.97,NW,324,6.0,13.0,88,0.00,,,0.00,Wunderground v.1.15,2013-02-06 00:46:00,
2013-02-05 19:51:00,32.4,29.0,29.98,NW,312,6.0,20.0,87,0.00,,,0.00,Wunderground v.1.15,2013-02-06 00:51:00,
2013-02-05 19:57:00,32.4,29.0,29.98,ENE,74,8.0,20.0,87,0.00,,,0.00,Wunderground v.1.15,2013-02-06 00:57:00,
2013-02-05 20:02:00,32.4,28.7,29.98,WSW,256,8.0,13.0,86,0.00,,,0.00,Wunderground v.1.15,2013-02-06 01:02:00,
2013-02-05 20:08:00,32.4,28.7,29.98,NNW,332,7.0,13.0,86,0.00,,,0.00,Wunderground v.1.15,2013-02-06 01:08:00,
2013-02-05 20:13:00,32.4,28.7,29.98,WSW,238,7.0,7.0,86,0.00,,,0.00,Wunderground v.1.15,2013-02-06 01:13:00,
2013-02-05 20:19:00,32.3,28.6,29.98,WSW,255,7.0,11.0,86,0.00,,,0.00,Wunderground v.1.15,2013-02-06 01:19:00,
2013-02-05 20:25:00,32.3,28.6,29.99,NW,304,7.0,9.0,86,0.00,,,0.00,Wunderground v.1.15,2013-02-06 01:25:00,
2013-02-05 20:31:00,32.3,28.9,29.99,WNW,302,6.0,12.0,87,0.00,,,0.00,Wunderground v.1.15,2013-02-06 01:31:00,
2013-02-05 20:37:00,32.2,28.8,30.00,WNW,296,5.0,12.0,87,0.00,,,0.00,Wunderground v.1.15,2013-02-06 01:37:00,
2013-02-05 20:43:00,32.2,28.8,30.00,NW,310,5.0,12.0,87,0.00,,,0.00,Wunderground v.1.15,2013-02-06 01:43:00,
2013-02-05 20:49:00,32.2,28.8,30.00,North,349,6.0,12.0,87,0.00,,,0.00,Wunderground v.1.15,2013-02-06 01:49:00,
2013-02-05 20:55:00,32.2,28.5,30.00,NW,311,7.0,12.0,86,0.00,,,0.00,Wunderground v.1.15,2013-02-06 01:55:00,
2013-02-05 21:00:00,32.2,28.5,30.00,WNW,284,7.0,8.0,86,0.00,,,0.00,Wunderground v.1.15,2013-02-06 02:00:00,
2013-02-05 21:06:00,32.1,28.4,30.01,NW,316,5.0,8.0,86,0.00,,,0.00,Wunderground v.1.15,2013-02-06 02:06:00,
2013-02-05 21:11:00,32.1,28.4,30.01,West,270,5.0,7.0,86,0.00,,,0.00,Wunderground v.1.15,2013-02-06 02:11:00,
2013-02-05 21:17:00,32.1,28.4,30.01,NW,307,6.0,11.0,86,0.00,,,0.00,Wunderground v.1.15,2013-02-06 02:17:00,
2013-02-05 21:23:00,32.1,28.4,30.02,WNW,296,6.0,6.0,86,0.00,,,0.00,Wunderground v.1.15,2013-02-06 02:23:00,
2013-02-05 21:29:00,32.1,28.4,30.02,NW,314,7.0,10.0,86,0.00,,,0.00,Wunderground v.1.15,2013-02-06 02:29:00,
2013-02-05 21:35:00,32.0,28.3,30.02,WNW,287,6.0,15.0,86,0.00,,,0.00,Wunderground v.1.15,2013-02-06 02:35:00,
2013-02-05 21:40:00,32.0,28.3,30.02,NW,324,5.0,15.0,86,0.00,,,0.00,Wunderground v.1.15,2013-02-06 02:40:00,
2013-02-05 21:46:00,32.0,28.3,30.03,WNW,302,5.0,15.0,86,0.00,,,0.00,Wunderground v.1.15,2013-02-06 02:46:00,
2013-02-05 21:52:00,31.9,28.2,30.03,NW,304,7.0,15.0,86,0.00,,,0.00,Wunderground v.1.15,2013-02-06 02:52:00,
2013-02-05 21:58:00,31.8,28.1,30.03,NW,323,7.0,15.0,86,0.00,,,0.00,Wunderground v.1.15,2013-02-06 02:58:00,
2013-02-05 22:04:00,31.8,28.4,30.03,WNW,296,6.0,11.0,87,0.00,,,0.00,Wunderground v.1.15,2013-02-06 03:04:00,
2013-02-05 22:10:00,31.8,28.4,30.04,NW,304,6.0,6.0,87,0.00,,,0.00,Wunderground v.1.15,2013-02-06 03:10:00,
2013-02-05 22:16:00,31.7,28.0,30.04,WNW,297,7.0,10.0,86,0.00,,,0.00,Wunderground v.1.15,2013-02-06 03:16:00,
2013-02-05 22:22:00,31.6,27.9,30.04,NW,304,7.0,9.0,86,0.00,,,0.00,Wunderground v.1.15,2013-02-06 03:22:00,
2013-02-05 22:28:00,31.5,27.5,30.05,NW,322,6.0,9.0,85,0.00,,,0.00,Wunderground v.1.15,2013-02-06 03:28:00,
2013-02-05 22:33:00,31.4,27.1,30.05,WNW,302,8.0,14.0,84,0.00,,,0.00,Wunderground v.1.15,2013-02-06 03:33:00,
2013-02-05 22:39:00,31.3,27.0,30.05,NW,316,9.0,17.0,84,0.00,,,0.00,Wunderground v.1.15,2013-02-06 03:39:00,
2013-02-05 22:44:00,31.2,27.2,30.05,WNW,302,9.0,14.0,85,0.00,,,0.00,Wunderground v.1.15,2013-02-06 03:44:00,
2013-02-05 22:49:00,31.1,27.1,30.06,WSW,248,9.0,14.0,85,0.00,,,0.00,Wunderground v.1.15,2013-02-06 03:49:00,
2013-02-05 22:54:00,31.0,27.0,30.06,NW,309,10.0,12.0,85,0.00,,,0.00,Wunderground v.1.15,2013-02-06 03:54:00,
2013-02-05 23:00:00,30.9,27.2,30.06,WNW,284,9.0,9.0,86,0.00,,,0.00,Wunderground v.1.15,2013-02-06 04:00:00,
2013-02-05 23:06:00,30.8,27.1,30.06,WNW,302,9.0,14.0,86,0.00,,,0.00,Wunderground v.1.15,2013-02-06 04:06:00,
2013-02-05 23:12:00,30.7,27.0,30.07,WNW,285,9.0,13.0,86,0.00,,,0.00,Wunderground v.1.15,2013-02-06 04:12:00,
2013-02-05 23:18:00,30.6,26.9,30.07,NW,316,9.0,14.0,86,0.00,,,0.00,Wunderground v.1.15,2013-02-06 04:18:00,
2013-02-05 23:24:00,30.4,26.7,30.07,NW,316,10.0,13.0,86,0.00,,,0.00,Wunderground v.1.15,2013-02-06 04:24:00,
2013-02-05 23:30:00,30.3,26.9,30.08,NW,306,9.0,9.0,87,0.00,,,0.00,Wunderground v.1.15,2013-02-06 04:30:00,
2013-02-05 23:35:00,30.2,26.8,30.08,NW,312,8.0,16.0,87,0.00,,,0.00,Wunderground v.1.15,2013-02-06 04:35:00,
2013-02-05 23:41:00,30.1,26.4,30.08,NW,307,8.0,16.0,86,0.00,,,0.00,Wunderground v.1.15,2013-02-06 04:41:00,
2013-02-05 23:46:00,29.9,26.2,30.08,NW,326,9.0,17.0,86,0.00,,,0.00,Wunderground v.1.15,2013-02-06 04:46:00,
2013-02-05 23:52:00,29.8,26.1,30.08,NW,311,9.0,16.0,86,0.00,,,0.00,Wunderground v.1.15,2013-02-06 04:52:00,
2013-02-05 23:58:00,29.7,26.0,30.09,NW,312,8.0,16.0,86,0.00,,,0.00,Wunderground v.1.15,2013-02-06 04:58:00,